Date,TemperatureHighF,TemperatureAvgF,TemperatureLowF,DewpointHighF,DewpointAvgF,DewpointLowF,HumidityHigh,HumidityAvg,HumidityLow,PressureMaxIn,PressureMinIn,WindSpeedMaxMPH,WindSpeedAvgMPH,GustSpeedMaxMPH,PrecipitationSumIn
2013-1-1,20.0,12.5,2.0,6.9,3.6,-2.9,82,67,53,30.16,30.01,10,3,16,0.00
2013-1-2,23.0,18.4,10.5,15.4,12.1,2.1,82,76,66,30.09,29.99,8,3,13,0.00
2013-1-3,27.8,20.8,14.0,19.4,14.7,10.6,88,77,62,30.02,29.88,13,4,21,0.00
2013-1-4,35.5,24.6,16.7,21.1,14.8,9.6,82,66,50,30.10,29.80,17,4,20,0.00
2013-1-5,33.8,20.7,6.3,27.7,15.8,2.8,89,81,65,30.16,29.80,9,2,17,0.00
2013-1-6,28.8,20.8,5.2,26.7,15.6,1.9,92,81,63,30.21,29.76,14,2,21,0.00
2013-1-7,34.4,23.5,4.3,24.1,16.7,0.8,97,76,60,30.20,29.81,12,2,21,0.00
2013-1-8,36.6,29.7,16.0,34.4,25.6,12.7,94,85,67,30.07,29.80,15,2,20,0.02
2013-1-9,37.0,33.1,20.5,32.4,24.7,17.5,88,72,54,30.38,29.71,24,5,32,0.00
2013-1-10,36.8,26.9,15.1,32.7,23.2,13.0,94,86,69,30.47,29.98,10,2,0,0.00
2013-1-11,39.5,36.4,34.1,39.5,35.9,31.5,100,98,89,29.97,29.54,13,3,17,0.00
2013-1-12,41.9,37.0,28.1,41.9,32.3,19.2,100,84,63,29.89,29.46,17,6,25,0.00
2013-1-13,27.8,23.2,17.5,19.1,16.4,10.6,85,75,68,30.01,29.83,11,3,15,0.00
2013-1-14,23.4,14.5,6.9,12.1,6.6,1.2,83,71,56,30.34,30.01,9,2,16,0.00
2013-1-15,28.2,16.5,2.0,13.9,7.1,-1.8,83,67,49,30.35,29.96,19,4,23,0.00
2013-1-16,29.4,23.8,18.8,23.1,15.5,8.9,84,70,54,30.01,29.57,16,5,25,0.00
2013-1-17,18.6,9.0,0.1,8.5,-1.6,-6.4,78,61,40,30.34,30.01,12,3,21,0.00
2013-1-18,19.2,10.2,-0.4,16.0,5.5,-5.8,87,80,69,30.35,29.74,5,1,0,0.00
2013-1-19,34.1,23.1,14.3,29.8,18.7,1.5,92,83,56,29.80,29.41,24,4,37,0.00
2013-1-20,14.4,5.8,-8.6,2.1,-4.6,-12.9,77,60,44,30.18,29.63,20,5,31,0.00
2013-1-21,3.2,-3.3,-11.2,-8.1,-13.2,-20.8,75,57,45,30.17,30.01,11,4,24,0.00
2013-1-22,3.4,-7.3,-14.6,-12.6,-16.4,-20.6,77,59,39,30.29,30.17,15,3,22,0.00
2013-1-23,10.9,1.5,-10.3,4.7,-7.1,-15.9,82,64,43,30.32,30.03,15,3,24,0.00
2013-1-24,14.3,5.4,-6.3,4.0,-2.1,-10.4,83,70,48,30.64,30.33,10,2,15,0.00
2013-1-25,20.8,12.8,3.9,14.7,8.3,0.2,87,82,66,30.40,29.90,4,1,0,0.00
2013-1-26,27.6,20.1,12.1,17.0,13.7,8.7,87,76,60,30.34,30.04,10,2,16,0.00
2013-1-27,33.4,27.7,21.0,29.7,21.2,12.1,96,77,57,30.32,29.94,16,5,23,0.00
2013-1-28,35.9,32.1,29.7,32.7,31.0,29.2,98,96,87,29.94,29.78,7,1,14,0.00
2013-1-29,38.0,34.0,31.8,37.7,33.4,30.4,99,98,94,29.88,29.44,10,3,17,0.00
2013-1-30,32.9,25.4,15.6,31.9,22.5,12.2,97,89,80,29.50,29.25,14,5,30,0.00
2013-1-31,15.6,12.1,7.9,12.0,4.9,0.7,86,73,58,29.92,29.33,18,6,23,0.00
2013-2-1,12.6,5.1,-5.2,1.1,-3.8,-10.2,82,65,47,30.14,29.92,14,4,19,0.00
2013-2-2,18.9,2.9,-9.1,1.6,-6.5,-13.9,79,63,39,30.10,30.00,10,2,15,0.00
2013-2-3,17.0,3.4,-7.5,5.1,-4.2,-11.5,81,70,47,29.99,29.84,13,2,22,0.00
2013-2-4,7.7,-2.3,-7.2,-1.4,-7.5,-11.5,80,75,65,30.02,29.99,6,2,0,0.00
2013-2-5,24.1,14.4,1.2,14.8,8.6,-1.7,89,78,62,30.03,29.71,6,1,12,0.00
2013-2-6,23.2,10.2,-9.1,16.4,4.6,-12.9,89,77,57,30.21,30.03,10,2,0,0.00
2013-2-7,21.1,19.7,18.6,18.4,17.2,15.9,92,90,86,30.17,30.12,11,3,17,0.00
2013-2-8,27.9,17.1,-2.0,17.6,10.1,-5.7,89,75,50,30.40,30.16,15,3,19,0.00
2013-2-9,27.9,11.0,-9.3,21.4,6.0,-13.3,86,78,67,30.40,30.10,15,2,20,0.00
2013-2-10,33.4,28.2,22.2,31.7,25.0,18.6,97,88,80,30.09,29.46,13,3,18,0.00
2013-2-11,37.0,31.7,23.8,36.7,28.6,15.5,99,89,69,29.78,29.22,15,5,28,0.00
2013-2-12,28.4,22.2,15.4,17.8,15.1,11.7,89,75,56,29.93,29.77,12,3,18,0.00
2013-2-13,35.3,24.3,13.8,26.8,19.7,11.2,94,83,66,29.76,29.60,6,2,0,0.00
2013-2-14,33.8,25.6,18.4,30.1,21.8,10.2,96,85,69,29.91,29.60,24,3,25,0.00
2013-2-15,21.4,16.1,5.0,12.7,6.7,-1.1,80,66,46,30.16,29.90,15,3,18,0.00
2013-2-16,20.8,9.0,-1.8,5.3,0.3,-6.0,82,68,43,30.18,30.08,10,2,16,0.00
2013-2-17,21.6,6.5,-10.5,5.9,-2.9,-14.6,82,65,40,30.20,29.99,14,3,17,0.00
2013-2-18,35.5,27.7,11.7,32.1,23.2,4.1,96,83,63,29.99,29.35,16,4,24,0.00
2013-2-19,32.4,19.3,10.4,31.4,14.1,1.1,97,80,63,29.94,29.26,24,6,30,0.00
2013-2-20,18.9,14.1,10.2,12.6,8.1,4.5,84,77,72,30.37,29.95,16,6,24,0.00
2013-2-21,25.1,20.3,14.8,19.4,16.0,9.5,87,83,78,30.44,30.28,16,3,24,0.00
2013-2-22,23.6,20.9,17.3,20.7,18.2,13.8,95,89,84,30.28,29.77,15,4,19,0.00
2013-2-23,31.5,23.6,14.1,25.5,19.4,11.5,92,84,69,29.79,29.73,9,2,0,0.00
2013-2-24,36.6,29.8,25.7,26.3,24.2,22.9,92,80,59,30.09,29.79,9,2,12,0.00
2013-2-25,35.0,30.0,26.0,26.8,24.5,22.8,91,80,62,30.12,30.07,10,2,14,0.00
2013-2-26,35.6,31.3,28.5,28.9,25.8,22.7,94,81,63,30.10,29.84,11,3,18,0.00
2013-2-27,33.8,30.6,27.2,30.3,27.7,21.9,95,89,78,29.83,29.70,13,4,21,0.00
2013-2-28,30.9,27.6,23.5,29.4,22.5,15.9,94,81,68,30.15,29.78,20,6,28,0.00
2013-3-1,27.3,21.5,14.4,17.0,13.3,7.8,82,71,50,30.28,30.15,15,5,27,0.00
2013-3-2,28.7,17.2,5.4,15.6,9.5,1.8,90,72,52,30.24,30.15,15,3,21,0.00
2013-3-3,31.6,14.7,-0.3,15.3,6.3,-3.8,86,71,45,30.15,30.06,9,2,19,0.00
2013-3-4,35.5,18.0,-1.2,17.7,8.5,-5.0,86,68,39,30.19,30.10,8,1,0,0.00
2013-3-5,35.8,22.0,7.0,22.2,13.4,3.5,88,71,43,30.15,30.02,17,3,19,0.00
2013-3-6,32.8,29.1,23.8,28.5,24.2,18.5,90,82,70,30.28,30.08,14,2,15,0.02
2013-3-7,34.0,22.0,9.5,19.1,13.7,6.4,88,72,45,30.44,30.27,7,2,13,0.00
2013-3-8,33.7,19.5,0.5,24.1,14.1,-3.3,92,80,64,30.50,30.28,14,3,18,0.00
2013-3-9,35.6,30.1,19.5,33.0,27.5,17.8,96,90,78,30.28,29.83,19,4,20,0.12
2013-3-10,36.5,33.9,31.8,36.0,32.8,29.3,99,96,88,29.90,29.74,9,1,18,0.28
2013-3-11,34.9,32.0,27.3,33.9,30.3,23.1,98,93,84,29.79,29.43,0,0,0,0.28
2013-3-12,27.2,23.5,17.8,23.0,17.1,11.8,87,76,62,29.87,29.53,0,0,0,0.01
2013-3-13,32.4,22.3,11.6,18.3,13.4,7.7,91,70,36,30.22,29.87,0,0,0,0.08
2013-3-14,35.5,24.1,2.4,21.4,13.0,-1.6,87,64,41,30.24,29.90,15,4,20,0.01
2013-3-15,31.0,26.5,18.6,26.1,17.2,9.6,85,68,54,29.98,29.84,20,3,22,0.00
2013-3-16,28.4,20.9,9.7,13.9,10.3,6.1,88,65,41,30.07,29.92,14,2,24,0.01
2013-3-17,23.5,14.6,3.7,12.7,4.6,-2.9,83,64,47,30.31,30.07,12,3,17,0.00
2013-3-18,34.4,21.7,5.6,28.8,16.3,1.6,95,81,56,30.15,29.42,16,3,21,0.00
2013-3-19,31.5,25.0,19.5,26.4,17.1,10.9,94,73,51,29.82,29.39,19,7,26,0.19
2013-3-20,25.6,19.2,7.0,14.2,9.8,2.9,85,67,48,29.93,29.81,14,5,23,0.02
2013-3-21,29.0,23.1,15.9,16.6,14.1,10.0,79,69,53,29.98,29.88,15,4,27,0.00
2013-3-22,36.2,24.8,10.5,24.7,17.6,6.6,87,74,59,30.05,29.95,15,3,18,0.00
2013-3-23,35.9,29.7,25.3,25.4,21.9,19.3,83,73,59,30.11,30.05,8,2,12,0.00
2013-3-24,35.5,29.5,23.8,23.4,21.0,18.0,86,71,50,30.10,29.88,16,3,17,0.00
2013-3-25,38.5,29.2,19.9,26.0,22.8,17.7,92,78,57,30.05,29.88,15,4,22,0.01
2013-3-26,41.1,32.7,26.1,32.2,26.4,20.2,95,79,52,30.17,30.04,11,2,20,0.06
2013-3-27,45.4,33.5,22.5,25.0,21.3,18.0,83,63,35,30.22,30.14,14,3,21,0.00
2013-3-28,49.1,33.9,20.3,23.9,19.3,15.8,83,59,27,30.26,30.19,9,2,13,0.00
2013-3-29,48.8,33.0,17.0,23.8,18.7,14.5,92,61,28,30.28,30.15,12,2,16,0.00
2013-3-30,38.6,31.6,22.5,33.8,26.4,19.0,97,82,56,30.14,29.72,13,3,17,0.20
2013-3-31,46.2,35.5,25.0,37.4,28.3,16.3,99,77,41,29.79,29.51,19,4,35,0.18
2013-4-1,32.2,23.5,15.4,18.8,11.7,6.6,76,61,37,30.07,29.79,17,4,28,0.00
2013-4-2,37.0,23.8,11.9,13.6,9.6,5.2,78,57,27,30.25,30.05,15,3,21,0.00
2013-4-3,35.9,26.3,11.7,21.8,13.8,6.2,79,60,37,30.41,30.16,13,4,19,0.00
2013-4-4,49.8,36.9,27.2,30.0,24.0,20.6,81,61,38,30.16,29.85,14,4,18,0.00
2013-4-5,40.3,30.2,20.3,23.4,18.6,11.3,89,65,30,30.23,30.02,9,2,13,0.00
2013-4-6,39.2,32.7,28.4,33.4,28.3,21.3,96,84,66,30.16,29.46,15,4,21,0.31
2013-4-7,40.1,35.2,27.9,33.9,30.8,25.7,98,85,64,29.99,29.42,14,3,17,0.09
2013-4-8,38.0,32.3,25.8,34.8,30.5,24.6,97,93,80,30.00,29.81,9,2,13,0.13
2013-4-9,37.8,33.8,30.7,37.1,31.2,24.4,99,91,77,30.14,30.00,14,2,22,0.00
2013-4-10,44.5,34.9,29.8,26.7,23.5,16.9,82,64,40,30.15,30.08,16,4,19,0.00
2013-4-11,34.1,31.7,27.2,25.8,19.6,9.2,93,62,36,30.09,29.78,23,6,31,0.00
2013-4-12,32.8,28.8,26.0,29.9,26.5,24.3,95,91,85,29.79,29.63,14,3,20,0.30
2013-4-13,39.9,29.5,18.3,30.0,24.7,16.6,95,83,55,29.90,29.67,13,1,18,0.19
2013-4-14,41.6,29.9,15.9,31.1,24.1,13.7,93,80,51,30.04,29.82,12,3,18,0.00
2013-4-15,51.1,40.6,31.6,40.6,33.2,24.9,98,77,39,29.82,29.56,18,5,23,0.36
2013-4-16,48.8,39.0,29.5,31.1,27.5,25.2,86,64,42,30.31,29.82,15,4,21,0.00
2013-4-17,43.5,34.8,24.2,32.4,28.3,22.7,96,78,59,30.39,30.02,11,3,16,0.00
2013-4-18,39.6,37.1,34.6,38.9,35.7,29.5,100,95,74,30.01,29.25,7,2,13,0.25
2013-4-19,40.3,33.0,23.6,40.0,28.5,15.6,99,84,61,29.71,29.05,23,7,40,0.07
2013-4-20,39.5,28.1,19.4,18.4,14.4,10.2,77,58,30,30.41,29.72,11,4,22,0.00
2013-4-21,40.5,31.2,18.9,31.8,23.1,15.3,92,73,50,30.51,30.26,26,6,29,0.00
2013-4-22,39.3,37.7,34.6,38.5,35.6,30.7,98,92,74,30.24,30.08,16,4,21,0.49
2013-4-23,41.6,35.8,30.6,37.5,33.2,27.8,99,91,66,30.08,29.82,11,2,17,0.15
2013-4-24,51.1,36.6,25.8,31.5,24.9,14.9,94,68,25,29.94,29.84,16,3,20,0.00
2013-4-25,53.6,40.1,29.4,34.0,29.3,19.4,96,70,28,30.18,29.78,15,4,24,0.12
2013-4-26,55.1,38.6,26.9,37.9,32.1,24.7,94,79,51,30.22,30.06,19,4,29,0.04
2013-4-27,61.8,46.1,29.5,48.6,38.8,28.2,97,78,58,30.13,29.98,12,3,20,0.00
2013-4-28,68.8,51.4,32.9,43.5,37.3,31.1,95,63,30,29.97,29.75,15,3,17,0.00
2013-4-29,63.1,48.4,38.6,52.4,44.2,34.8,97,86,68,29.79,29.73,10,2,15,0.08
2013-4-30,62.4,53.3,42.6,53.7,48.9,41.0,98,86,71,29.76,29.65,26,6,33,0.09
2013-5-1,68.1,55.5,38.9,50.5,42.6,30.7,92,64,38,30.31,29.77,19,3,21,0.00
2013-5-2,51.1,39.7,33.7,37.5,33.3,30.9,95,78,57,30.33,30.24,19,6,25,0.25
2013-5-3,52.6,40.3,33.2,41.7,35.3,31.9,96,83,62,30.24,30.10,15,4,18,0.03
2013-5-4,72.0,50.9,36.8,47.3,40.1,35.0,94,70,40,30.12,30.04,10,3,16,0.01
2013-5-5,73.7,53.0,35.5,42.8,36.5,28.5,94,61,19,30.12,30.00,10,2,14,0.00
2013-5-6,74.0,54.5,33.7,47.2,38.3,31.6,95,60,27,30.08,29.95,12,2,16,0.00
2013-5-7,75.8,57.7,36.2,44.6,35.0,20.6,96,52,13,30.05,29.95,11,2,15,0.00
2013-5-8,78.6,58.8,36.8,46.6,39.5,34.5,93,56,25,29.99,29.90,12,2,16,0.00
2013-5-9,62.3,49.9,36.8,44.4,39.4,33.0,92,68,50,30.09,29.89,14,3,21,0.03
2013-5-10,50.7,40.7,31.6,36.2,32.8,27.9,96,76,48,30.06,29.92,10,3,25,0.05
2013-5-11,47.7,37.5,28.7,39.3,31.3,25.7,96,80,44,29.92,29.74,22,3,24,0.19
2013-5-12,41.8,35.2,26.6,32.1,26.3,20.6,93,71,47,30.08,29.83,17,4,25,0.01
2013-5-13,52.9,39.1,23.5,32.5,24.0,18.0,88,59,28,30.11,29.92,18,4,23,0.00
2013-5-14,59.8,48.6,39.5,41.6,36.8,32.3,86,65,45,29.93,29.49,15,4,20,0.01
2013-5-15,78.8,59.7,38.9,46.8,38.4,29.3,96,55,17,29.70,29.42,18,4,25,0.00
2013-5-16,69.6,54.6,39.9,42.5,38.1,33.8,87,58,29,30.05,29.68,12,2,21,0.00
2013-5-17,63.5,49.2,37.0,45.3,39.0,33.4,89,70,46,30.15,30.05,11,2,14,0.00
2013-5-18,63.1,52.6,42.2,48.3,45.6,39.3,95,78,54,30.12,29.93,10,2,16,0.03
2013-5-19,73.5,61.3,50.4,59.0,52.1,46.0,89,73,55,29.93,29.76,13,2,16,0.00
2013-5-20,66.6,59.3,53.1,61.3,55.7,51.4,97,88,72,29.77,29.63,14,4,15,0.24
2013-5-21,60.9,55.6,52.6,57.1,54.2,51.1,99,95,81,29.68,29.59,12,3,16,0.14
2013-5-22,55.4,50.9,47.3,55.1,49.0,46.4,99,94,82,29.82,29.64,12,2,22,0.09
2013-5-23,49.1,43.1,35.9,47.2,34.3,28.6,96,73,51,30.29,29.83,24,5,30,0.04
2013-5-24,62.3,45.3,29.0,40.2,32.7,27.4,97,66,31,30.39,30.28,12,2,16,0.00
2013-5-25,62.3,48.4,29.8,42.4,32.8,27.0,98,62,27,30.41,30.27,12,2,18,0.00
2013-5-26,65.6,50.5,31.2,42.0,32.8,26.3,97,58,25,30.35,30.17,14,2,18,0.00
2013-5-27,68.8,53.7,34.0,43.3,36.4,32.2,94,58,28,30.20,29.91,13,3,18,0.00
2013-5-28,55.4,53.4,51.9,52.1,46.5,39.4,96,78,56,29.91,29.69,10,2,12,0.00
2013-5-29,72.7,59.2,51.7,59.6,54.8,50.8,99,87,61,29.82,29.71,14,3,19,0.00
2013-5-30,75.6,63.8,52.2,63.3,57.8,50.9,97,82,62,29.81,29.70,16,3,25,0.00
2013-5-31,73.0,62.3,55.0,61.7,57.4,53.7,96,85,65,29.73,29.62,15,4,24,0.00
2013-6-1,73.5,58.9,46.1,63.4,55.8,45.0,98,90,63,29.65,29.54,10,2,17,0.45
2013-6-2,57.5,46.0,37.6,44.7,39.7,35.2,96,80,52,30.00,29.64,22,3,23,0.03
2013-6-3,66.1,48.7,30.1,43.5,35.4,29.1,98,66,33,30.09,29.97,11,2,18,0.00
2013-6-4,62.4,49.5,30.1,45.4,34.3,27.7,98,62,28,30.19,30.10,8,1,13,0.00
2013-6-5,56.6,51.5,47.7,49.1,45.3,41.9,91,80,70,30.15,30.04,9,1,12,0.00
2013-6-6,63.4,52.9,47.3,50.8,44.8,38.7,94,75,45,30.04,29.95,7,1,13,0.04
2013-6-7,75.1,57.9,42.2,45.1,40.7,32.5,93,59,21,29.97,29.85,13,2,16,0.00
2013-6-8,74.7,58.7,43.9,46.3,42.2,36.8,88,59,28,29.99,29.88,10,2,19,0.00
2013-6-9,72.7,58.7,39.9,53.4,47.8,38.9,98,70,46,30.05,29.89,14,2,15,0.00
2013-6-10,74.9,64.6,54.1,59.7,54.5,49.4,92,70,55,29.89,29.74,10,2,13,0.00
2013-6-11,75.1,63.5,56.6,62.5,58.5,55.3,99,85,62,29.82,29.73,7,1,0,0.00
2013-6-12,77.2,63.1,46.5,60.5,53.0,46.0,99,73,40,29.86,29.71,9,2,15,0.00
2013-6-13,65.5,57.8,50.4,52.7,49.3,45.0,92,74,58,30.02,29.73,16,3,24,0.00
2013-6-14,74.6,58.9,42.1,47.3,40.6,29.3,92,57,20,30.12,29.97,10,2,13,0.00
2013-6-15,68.1,58.3,49.5,56.8,51.5,44.3,91,79,64,29.96,29.75,7,1,0,0.01
2013-6-16,82.6,68.5,57.0,62.3,54.8,46.8,99,67,29,29.80,29.68,12,2,30,0.00
2013-6-17,63.9,55.0,41.8,53.7,49.7,39.4,96,83,61,30.03,29.74,9,1,12,0.04
2013-6-18,70.8,54.1,34.7,46.7,40.4,33.7,98,66,30,30.10,30.02,13,2,16,0.00
2013-6-19,70.9,57.6,36.8,52.4,44.5,35.8,99,66,37,30.11,30.00,14,3,18,0.00
2013-6-20,75.3,62.0,47.9,63.0,53.7,46.1,96,76,52,30.07,30.01,9,2,13,0.06
2013-6-21,67.1,61.6,57.3,62.3,59.2,55.7,97,92,80,30.08,29.84,9,2,19,0.10
2013-6-22,68.8,62.9,56.9,62.7,59.9,55.8,98,90,79,30.02,29.89,8,1,13,0.00
2013-6-23,73.2,65.2,58.6,65.9,61.3,57.6,99,88,69,29.94,29.75,12,2,18,0.00
2013-6-24,83.8,71.9,58.0,69.6,64.7,57.4,99,80,56,29.86,29.71,12,3,19,0.00
2013-6-25,87.2,76.6,65.6,69.4,65.5,57.1,97,71,39,29.75,29.70,12,2,15,0.00
2013-6-26,81.1,70.5,58.6,68.8,64.3,58.0,99,82,62,29.75,29.64,16,2,16,0.44
2013-6-27,77.9,66.9,60.5,68.5,63.8,59.3,99,91,66,29.70,29.60,10,2,17,0.64
2013-6-28,66.8,62.3,58.9,64.9,60.9,57.8,99,95,85,29.63,29.55,8,1,14,0.03
2013-6-29,71.5,62.3,54.1,59.2,54.7,44.2,96,78,55,29.82,29.62,13,2,18,0.00
2013-6-30,79.6,64.3,49.2,51.3,46.6,42.3,86,58,29,30.01,29.82,10,2,16,0.00
2013-7-1,79.9,62.7,46.7,59.6,48.3,39.0,91,63,36,30.13,30.01,12,1,13,0.00
2013-7-2,77.2,60.8,40.3,48.9,42.9,38.2,95,57,27,30.15,30.03,9,2,15,0.00
2013-7-3,78.1,66.0,53.5,56.1,48.8,40.0,88,58,27,30.06,29.95,9,2,14,0.00
2013-7-4,76.8,68.3,56.6,65.5,60.5,55.5,97,77,58,29.97,29.90,15,4,21,0.00
2013-7-5,82.4,71.2,57.3,67.7,61.9,56.5,99,75,53,29.95,29.86,19,4,23,0.00
2013-7-6,85.7,74.9,64.0,67.3,62.9,60.1,90,68,47,29.91,29.84,16,5,21,0.00
2013-7-7,81.4,71.9,64.5,69.6,66.1,60.6,94,83,62,29.92,29.81,6,1,0,0.02
2013-7-8,81.8,69.7,62.6,69.6,65.5,60.8,99,87,63,30.00,29.89,9,1,0,0.78
2013-7-9,70.9,65.1,59.5,67.8,63.6,58.9,99,95,85,30.00,29.68,8,2,14,0.52
2013-7-10,74.7,67.3,56.9,68.5,58.5,52.0,99,75,47,29.95,29.67,13,3,22,0.00
2013-7-11,81.8,65.2,50.2,62.8,54.6,48.9,98,73,33,30.11,29.95,11,1,13,0.00
2013-7-12,81.1,66.9,51.9,62.9,56.9,51.4,99,73,47,30.14,30.06,15,2,18,0.00
2013-7-13,81.6,69.8,56.7,65.7,60.2,54.5,99,74,51,30.14,30.06,14,3,18,0.00
2013-7-14,84.9,72.0,55.4,67.9,62.2,54.6,99,74,52,30.22,30.13,12,2,20,0.00
2013-7-15,87.6,75.0,61.2,72.2,66.2,60.6,99,77,52,30.26,30.20,13,2,18,0.00
2013-7-16,88.4,77.0,64.5,74.6,70.5,63.6,98,82,61,30.24,30.12,16,3,21,0.00
2013-7-17,94.0,82.8,70.3,74.1,70.0,65.2,97,69,40,30.18,30.06,18,2,19,0.00
2013-7-18,87.4,76.5,67.8,75.8,70.8,66.6,98,84,58,30.08,29.71,17,2,20,0.14
2013-7-19,85.9,76.3,61.5,75.2,67.2,58.5,96,75,50,29.75,29.57,12,3,23,0.39
2013-7-20,71.1,62.1,47.9,58.9,51.1,44.8,96,70,43,30.05,29.74,10,2,16,0.00
2013-7-21,68.3,55.6,42.1,56.0,49.1,41.0,98,80,57,30.07,29.94,4,0,0,0.00
2013-7-22,79.0,66.3,48.9,69.5,60.4,48.1,99,83,59,29.94,29.57,19,4,24,0.04
2013-7-23,66.4,59.5,49.2,62.4,50.4,42.4,95,73,44,30.00,29.65,14,3,24,0.00
2013-7-24,73.7,59.4,41.9,55.0,48.0,41.1,99,71,39,30.08,30.00,12,2,16,0.00
2013-7-25,76.8,64.8,51.7,61.6,56.8,50.3,98,78,47,30.02,29.90,16,3,27,0.49
2013-7-26,64.7,60.6,51.3,64.4,60.1,50.5,99,98,95,29.94,29.77,9,2,14,1.46
2013-7-27,61.6,54.0,47.9,53.1,49.0,46.6,97,84,63,29.90,29.81,6,1,13,0.00
2013-7-28,56.3,51.4,43.5,54.5,50.3,42.7,99,96,92,29.95,29.78,12,2,15,0.26
2013-7-29,76.0,59.6,48.8,58.9,53.1,48.0,98,82,41,30.16,29.95,10,2,13,0.00
2013-7-30,73.9,61.8,52.0,63.1,57.4,51.5,99,86,59,30.18,30.08,16,2,17,0.02
2013-7-31,77.4,67.5,59.5,66.7,61.2,55.3,94,81,60,30.08,29.83,17,2,20,0.00
2013-8-1,75.6,63.8,53.3,59.5,55.9,52.5,98,78,48,29.90,29.85,11,2,18,0.00
2013-8-2,77.4,63.7,52.2,60.8,55.7,49.9,99,78,39,29.93,29.79,12,2,18,0.18
2013-8-3,72.5,60.3,49.4,58.1,53.1,48.6,98,79,52,30.13,29.93,11,1,15,0.00
2013-8-4,73.0,59.1,47.0,55.8,49.8,45.5,99,75,41,30.23,30.10,10,1,12,0.00
2013-8-5,65.2,58.4,47.0,61.3,54.6,46.5,99,88,68,30.10,29.84,13,2,17,0.01
2013-8-6,74.2,66.0,59.9,65.9,62.5,59.0,99,89,72,29.84,29.74,11,2,16,0.00
2013-8-7,69.8,63.0,49.2,65.2,59.6,47.8,99,89,68,30.00,29.65,10,1,16,0.32
2013-8-8,75.8,59.5,44.8,59.9,52.0,43.8,99,80,42,30.04,29.97,10,1,12,0.02
2013-8-9,73.5,63.5,52.3,62.2,55.4,47.7,99,78,41,30.05,29.90,16,2,20,0.05
2013-8-10,73.7,59.7,44.9,58.2,51.9,44.4,99,79,44,30.14,30.05,10,1,13,0.00
2013-8-11,76.1,62.8,46.8,61.9,54.7,46.3,99,77,45,30.09,29.99,10,1,14,0.00
2013-8-12,77.2,61.1,48.0,64.8,55.8,45.8,99,84,55,30.03,29.86,14,2,22,0.15
2013-8-13,62.7,52.5,42.8,52.9,46.0,42.0,99,80,51,30.17,30.03,11,2,22,0.00
2013-8-14,68.8,54.1,41.3,52.9,46.3,40.5,99,78,45,30.22,30.09,9,1,12,0.00
2013-8-15,77.6,59.9,42.1,58.8,50.9,41.5,99,76,35,30.11,30.03,9,1,15,0.00
2013-8-16,78.8,62.7,45.5,62.0,53.6,44.9,99,76,45,30.16,30.09,10,1,13,0.00
2013-8-17,80.3,65.6,48.9,63.5,55.4,48.4,99,73,44,30.22,30.13,15,2,17,0.00
2013-8-18,78.8,67.3,52.5,66.0,57.7,51.4,98,73,48,30.18,30.03,13,2,16,0.00
2013-8-19,82.8,69.0,54.7,65.6,60.2,53.6,98,76,49,30.04,29.91,14,2,17,0.00
2013-8-20,84.1,72.8,61.2,68.3,64.2,60.0,98,76,53,29.99,29.92,17,4,21,0.00
2013-8-21,87.4,74.6,65.3,73.5,67.5,63.1,97,80,59,29.94,29.79,14,3,24,0.05
2013-8-22,80.9,68.5,53.2,67.0,56.9,47.1,99,72,31,30.15,29.93,10,1,13,0.01
2013-8-23,76.5,61.9,46.8,59.0,52.6,46.3,99,76,40,30.23,30.15,10,1,13,0.00
2013-8-24,79.9,65.9,51.1,65.6,56.8,50.3,99,76,37,30.25,30.11,16,3,19,0.00
2013-8-25,93.6,79.7,68.4,73.7,68.0,59.2,83,69,51,30.11,29.89,16,6,23,0.00
2013-8-26,86.1,76.7,68.6,72.5,69.8,67.0,98,81,60,30.01,29.88,15,2,15,0.19
2013-8-27,76.3,71.0,67.9,72.1,69.4,66.9,99,95,82,29.93,29.82,12,1,16,0.80
2013-8-28,88.8,74.4,65.0,70.9,67.2,64.5,99,81,48,30.03,29.87,7,1,0,0.00
2013-8-29,84.7,72.1,60.1,72.3,66.7,59.5,99,85,60,30.07,29.86,13,2,15,0.02
2013-8-30,77.0,70.4,61.3,70.1,65.5,59.9,96,85,72,29.91,29.73,16,4,28,0.08
2013-8-31,74.0,65.0,58.3,66.7,62.1,57.7,99,91,74,29.91,29.79,10,1,13,0.00
2013-9-1,79.6,66.0,56.6,69.2,63.1,52.5,99,91,58,29.83,29.65,13,2,18,0.26
2013-9-2,61.5,55.6,51.1,52.7,49.5,47.0,91,80,67,30.00,29.83,12,3,21,0.00
2013-9-3,76.5,60.3,46.0,56.0,51.0,45.3,99,75,41,30.03,29.90,12,2,16,0.01
2013-9-4,67.6,58.7,45.4,57.2,48.9,31.6,98,73,28,30.20,29.89,12,2,14,0.00
2013-9-5,66.9,53.5,39.2,51.2,45.8,38.4,99,78,51,30.34,30.19,13,2,16,0.00
2013-9-6,74.9,62.3,49.4,62.7,54.9,46.4,96,78,55,30.21,29.90,16,3,18,0.00
2013-9-7,83.0,69.0,56.0,71.8,64.3,53.7,98,86,65,30.07,29.84,11,1,15,0.03
2013-9-8,69.1,57.5,46.8,57.7,52.3,46.5,100,85,58,30.17,30.02,7,1,12,0.00
2013-9-9,68.4,62.0,51.9,66.1,60.9,50.8,99,96,89,30.02,29.69,11,2,17,0.02
2013-9-10,88.4,72.6,65.0,73.9,66.8,62.1,100,85,45,29.88,29.68,18,2,18,0.07
2013-9-11,82.6,68.4,57.0,67.4,61.9,56.1,99,83,47,29.95,29.86,10,2,16,0.06
2013-9-12,62.3,54.7,48.6,56.5,50.9,44.5,99,88,68,30.16,29.92,15,2,21,0.01
2013-9-13,61.3,49.9,38.2,46.4,41.6,37.2,97,76,45,30.24,30.15,13,1,15,0.00
2013-9-14,69.3,52.0,33.4,52.4,43.3,32.6,99,76,45,30.16,29.95,17,3,21,0.00
2013-9-15,59.8,53.1,38.8,56.4,49.6,37.5,98,88,70,30.30,29.93,10,2,19,0.13
2013-9-16,62.1,45.8,32.4,44.6,39.0,31.7,99,80,45,30.47,30.30,7,1,0,0.00
2013-9-17,62.3,46.2,30.3,52.6,41.9,29.6,99,86,65,30.41,30.14,14,2,24,0.00
2013-9-18,63.7,58.0,46.8,62.5,57.0,45.7,99,97,90,30.14,29.88,14,2,17,0.24
2013-9-19,73.0,65.7,63.1,68.4,64.7,62.0,100,97,83,29.90,29.69,12,4,20,0.32
2013-9-20,74.7,66.0,54.2,67.9,62.0,49.0,100,88,58,29.75,29.62,9,2,16,0.05
2013-9-21,55.6,49.5,41.9,49.5,43.2,38.1,98,80,56,29.98,29.75,15,2,19,0.00
2013-9-22,54.2,46.9,40.1,44.6,42.0,38.7,97,84,65,30.13,29.98,8,1,13,0.00
2013-9-23,58.6,47.1,36.0,49.0,42.3,34.9,99,85,61,30.19,30.12,12,2,16,0.00
2013-9-24,65.5,48.6,34.1,56.6,44.6,33.6,100,88,60,30.16,30.03,11,1,0,0.00
2013-9-25,68.4,50.4,38.6,56.7,45.5,38.1,100,86,53,30.08,30.02,9,1,0,0.00
2013-9-26,69.6,52.5,37.8,60.3,47.4,37.5,100,85,53,30.14,30.03,10,1,14,0.01
2013-9-27,71.1,55.7,44.1,61.4,52.0,43.4,100,89,68,30.18,30.09,13,2,16,0.00
2013-9-28,68.1,61.7,49.9,60.8,56.8,49.0,100,85,69,30.09,29.76,20,5,31,0.30
2013-9-29,66.3,55.4,43.2,57.8,50.3,42.7,100,84,58,30.02,29.83,14,2,14,0.02
2013-9-30,68.4,55.5,42.9,54.4,48.3,42.6,100,80,48,29.99,29.79,19,4,26,0.01
2013-10-1,79.9,64.9,52.3,60.2,53.2,40.8,86,68,40,29.80,29.60,18,4,18,0.00
2013-10-2,73.7,54.6,40.3,49.4,41.6,34.2,94,67,24,30.00,29.80,13,2,0,0.00
2013-10-3,65.2,55.1,46.4,56.2,51.3,44.6,99,88,65,29.98,29.87,7,1,0,0.16
2013-10-4,61.8,56.3,53.2,53.9,51.9,50.1,93,85,72,30.06,29.89,10,2,0,0.02
2013-10-5,55.4,53.4,51.7,55.1,52.6,50.0,99,97,90,30.06,29.78,13,3,0,0.86
2013-10-6,67.4,59.1,53.1,61.5,56.3,51.3,100,91,63,29.77,29.51,12,3,0,0.74
2013-10-7,60.7,50.0,37.5,52.0,44.1,36.0,98,82,47,30.05,29.55,14,2,0,0.04
2013-10-8,65.6,49.8,32.2,58.2,45.0,31.4,100,85,48,30.17,30.05,19,3,0,0.00
2013-10-9,71.3,60.1,47.0,57.1,52.4,45.9,98,77,52,30.16,30.07,17,4,0,0.00
2013-10-10,66.4,53.9,39.2,58.1,49.7,38.4,100,87,65,30.20,30.11,13,2,0,0.00
2013-10-11,66.0,53.1,41.2,60.1,49.4,40.9,100,89,65,30.14,29.99,14,2,0,0.01
2013-10-12,64.2,58.5,47.7,60.6,54.9,42.4,98,88,66,30.01,29.86,18,5,0,0.06
2013-10-13,56.9,46.7,35.8,46.0,41.2,34.5,98,82,56,30.43,30.01,13,1,0,0.00
2013-10-14,58.4,41.6,28.8,44.1,34.7,28.1,99,80,42,30.50,30.30,7,1,0,0.00
2013-10-15,55.1,48.8,39.6,54.4,47.5,38.0,99,95,80,30.29,29.68,14,2,0,0.28
2013-10-16,54.5,48.9,42.1,54.2,46.8,37.8,100,93,79,29.91,29.63,12,2,0,0.03
2013-10-17,50.2,39.6,27.6,41.5,34.5,26.5,99,83,55,29.91,29.77,7,1,0,0.00
2013-10-18,48.2,40.6,32.1,46.8,39.7,30.8,99,97,93,29.88,29.76,5,1,0,0.12
2013-10-19,51.9,40.0,30.7,41.8,36.3,30.2,99,88,55,29.86,29.68,9,1,0,0.11
2013-10-20,46.4,39.1,31.5,39.5,36.2,30.7,99,90,71,29.83,29.67,10,2,0,0.17
2013-10-21,42.5,37.3,29.1,39.1,31.3,21.7,98,80,54,29.80,29.64,20,4,0,0.01
2013-10-22,44.2,34.0,27.3,35.8,30.0,23.7,92,85,71,29.95,29.68,13,2,0,0.00
2013-10-23,43.1,33.6,26.1,31.2,26.3,22.5,95,76,49,29.94,29.88,16,2,0,0.01
2013-10-24,45.8,34.8,27.2,31.5,27.5,25.2,94,76,48,30.20,29.93,14,2,0,0.01
2013-10-25,45.7,36.2,25.6,33.4,27.3,24.3,96,73,47,30.27,29.66,18,4,0,0.00
2013-10-26,46.7,40.3,30.0,38.7,32.6,26.6,93,75,56,30.01,29.59,21,4,0,0.02
2013-10-27,48.2,39.6,30.1,35.2,30.9,28.0,94,72,49,30.09,29.83,18,2,0,0.00
2013-10-28,42.3,33.5,21.9,34.8,24.0,18.4,88,70,41,30.53,30.09,11,2,0,0.00
2013-10-29,38.0,27.6,17.7,31.7,23.8,15.5,96,86,64,30.54,30.18,3,0,3,0.01
2013-10-30,49.8,41.1,32.7,49.5,40.5,31.7,99,98,95,30.18,29.74,10,1,15,0.09
2013-10-31,53.8,51.6,48.3,53.8,51.5,48.3,100,100,99,29.74,29.04,9,1,13,0.82
2013-11-1,48.3,43.7,38.9,48.3,42.4,36.8,100,95,84,29.73,29.02,12,3,17,0.37
2013-11-2,43.5,36.3,31.2,37.9,33.6,30.3,99,90,70,30.20,29.73,9,1,12,0.00
2013-11-3,45.5,35.7,23.8,39.3,32.3,22.8,98,88,66,30.34,30.19,19,3,24,0.04
2013-11-4,49.2,46.4,44.2,44.5,40.8,37.8,89,81,72,30.30,30.06,27,10,31,0.04
2013-11-5,53.5,44.4,33.7,43.9,38.7,32.7,99,82,48,30.25,29.99,11,2,13,0.18
2013-11-6,41.3,37.7,33.7,41.3,35.4,26.3,100,92,72,30.05,29.77,17,4,23,0.31
2013-11-7,38.2,33.9,27.9,29.7,26.8,24.5,87,75,64,30.14,30.05,13,4,20,0.00
2013-11-8,43.1,35.3,27.6,37.1,26.6,19.3,91,72,39,30.24,29.95,16,3,16,0.01
2013-11-9,43.6,40.8,38.9,41.1,37.0,31.0,98,86,72,29.95,29.62,18,7,27,0.50
2013-11-10,40.3,36.7,29.7,32.6,29.5,26.1,90,76,59,30.15,29.84,18,4,21,0.00
2013-11-11,38.8,28.5,23.2,33.2,20.4,12.6,94,72,48,30.38,29.94,18,5,24,0.01
2013-11-12,30.6,23.7,18.3,17.3,12.3,8.6,75,62,44,30.55,30.39,14,4,22,0.01
2013-11-13,41.8,29.7,18.3,27.8,17.7,9.4,74,61,48,30.41,29.79,17,6,21,0.00
2013-11-14,38.5,34.3,29.4,33.0,27.1,21.5,97,76,60,29.80,29.75,10,3,13,0.03
2013-11-15,49.4,33.6,24.2,40.2,30.9,23.2,99,90,70,29.84,29.76,10,1,13,0.01
2013-11-16,50.2,42.2,27.8,50.1,41.3,27.1,100,97,86,29.83,29.35,22,7,29,0.86
2013-11-17,52.3,48.7,40.6,52.3,48.1,33.9,100,98,77,29.38,29.06,26,4,33,0.25
2013-11-18,40.2,32.8,28.1,32.9,23.0,16.9,87,67,58,30.14,29.25,25,8,33,0.00
2013-11-19,36.5,28.4,18.6,31.5,20.4,14.8,90,72,54,30.34,30.14,13,2,18,0.00
2013-11-20,42.1,39.5,36.6,36.1,33.8,31.3,88,80,72,30.21,30.10,21,7,29,0.00
2013-11-21,40.8,37.7,30.7,37.6,35.3,29.2,99,91,70,30.22,30.08,11,2,22,0.05
2013-11-22,33.7,28.7,24.5,28.9,22.0,15.8,93,76,57,30.39,30.22,13,3,20,0.04
2013-11-23,24.4,15.4,9.2,16.7,5.2,-0.3,82,64,48,30.61,30.29,26,6,34,0.00
2013-11-24,24.1,16.6,8.4,5.9,3.2,-0.7,79,56,40,30.59,30.04,21,5,31,0.00
2013-11-25,34.6,29.6,23.9,25.5,17.8,5.5,84,62,44,30.03,29.77,17,6,21,0.00
2013-11-26,30.0,20.8,12.4,25.8,2.8,-99.9,86,63,51,30.13,29.83,13,-101,21,0.00
2013-11-27,26.6,19.0,12.3,18.6,14.0,6.3,91,81,59,30.18,30.09,12,2,20,0.00
2013-11-28,25.6,20.1,15.2,20.6,17.1,12.8,91,88,80,30.44,30.17,9,1,10,0.00
2013-11-29,30.3,20.2,6.7,24.3,14.7,3.4,92,80,59,30.58,30.33,14,2,20,0.00
2013-11-30,34.6,30.9,28.2,27.2,24.5,22.7,89,77,67,30.33,29.98,16,2,19,0.00
2013-12-1,33.8,31.1,29.3,30.0,28.3,26.0,96,89,77,30.11,29.98,5,1,11,0.00
2013-12-2,35.9,28.6,19.1,31.0,24.7,17.7,97,86,71,29.98,29.85,10,2,11,0.00
2013-12-3,29.4,25.9,23.5,24.8,23.1,21.4,94,89,79,29.94,29.86,11,4,12,0.00
2013-12-4,39.5,29.7,24.1,39.5,28.7,22.6,100,96,93,29.90,29.29,13,4,17,0.00
2013-12-5,41.3,24.4,9.7,41.3,16.0,-0.3,100,71,53,30.11,29.28,25,8,28,0.00
2013-12-6,17.7,8.9,2.0,3.1,-0.5,-4.1,77,65,47,30.41,30.10,13,5,15,0.00
2013-12-7,14.9,5.4,-0.2,-0.8,-4.6,-8.6,78,64,42,30.57,30.41,13,4,19,0.00
2013-12-8,12.6,4.6,-3.7,9.2,-2.0,-11.0,86,74,58,30.56,30.03,10,2,12,0.00
2013-12-9,19.2,13.6,-2.2,12.6,7.5,-11.0,89,77,52,30.03,29.75,17,4,24,0.00
2013-12-10,11.8,1.2,-7.9,2.0,-5.2,-12.9,84,74,64,30.10,29.82,11,3,16,0.00
2013-12-11,3.0,-0.8,-3.1,-6.1,-7.9,-9.4,75,71,65,30.23,30.11,6,3,12,0.00
2013-12-12,13.8,12.0,11.5,3.7,1.5,0.2,69,62,57,30.13,30.08,9,3,14,0.00
2013-12-13,15.7,9.9,2.8,5.7,1.2,-2.9,83,68,53,30.40,30.09,10,2,14,0.00
2013-12-14,13.8,9.4,2.2,9.4,4.1,-3.2,86,79,62,30.40,29.89,11,2,13,0.00
2013-12-15,19.9,12.6,3.5,10.3,6.3,-0.7,86,76,51,30.04,29.75,18,4,23,0.00
2013-12-16,19.5,8.2,-7.5,12.4,2.8,-13.0,87,78,61,30.15,29.87,9,2,13,0.00
2013-12-17,25.0,15.4,4.3,18.9,10.2,0.3,88,80,59,29.93,29.77,13,2,17,0.00
2013-12-18,19.2,15.1,8.1,12.3,7.5,4.5,86,72,60,30.01,29.70,13,2,14,0.00
2013-12-19,23.2,15.6,5.4,19.8,11.5,2.6,89,84,77,30.09,29.70,14,2,15,0.00
2013-12-20,22.9,19.5,14.4,17.9,15.4,11.2,89,84,73,30.04,29.85,7,2,13,0.00
2013-12-21,26.3,20.0,12.9,18.9,16.2,10.2,90,85,73,30.00,29.83,9,1,9,0.00
2013-12-22,22.2,20.0,18.6,18.4,15.7,12.9,90,83,74,30.06,29.87,12,3,16,0.00
2013-12-23,20.8,17.0,12.3,15.7,12.1,7.3,89,81,67,30.36,30.06,6,1,10,0.00
2013-12-24,19.1,10.9,4.1,9.0,4.5,-0.7,86,75,55,30.46,30.30,10,2,10,0.00
2013-12-25,16.9,12.5,7.2,9.9,6.9,2.6,85,78,68,30.29,30.00,13,4,17,0.00
2013-12-26,19.9,8.7,-7.0,10.6,2.4,-12.0,86,76,56,30.23,29.98,9,2,11,0.00
2013-12-27,27.8,10.0,-11.5,24.7,5.6,-17.4,89,82,74,30.24,29.85,14,2,20,0.00
2013-12-28,37.0,31.1,26.7,29.8,27.6,23.9,94,87,75,29.93,29.70,11,2,15,0.00
2013-12-29,31.9,14.4,-1.2,29.9,7.0,-9.6,92,72,57,30.14,29.70,18,5,28,0.00
2013-12-30,9.2,-0.7,-9.8,-5.2,-10.3,-16.6,75,63,49,30.26,30.09,8,3,14,0.00
2013-12-31,8.4,-2.2,-10.0,-8.2,-12.3,-16.8,79,62,44,30.38,30.07,11,3,18,0.00
2014-1-1,12.3,0.4,-10.3,-1.9,-8.8,-17.3,74,65,49,30.49,30.38,9,2,11,0.00
2014-1-2,14.0,1.0,-8.6,2.4,-7.0,-14.2,78,69,54,30.41,30.32,14,2,14,0.00